Haleyville, AL

4:38 AM CST on November 23, 2017 (GMT -0600)
Haleyville

Weather History for K1M4 - April, 2014

Change the Weather History Date:

Monday, April 28, 2014

  Actual Average (KJFX) Record (KJFX)
Temperature  
Mean Temperature 71 °F -  
Max Temperature 79 °F 76 °F 89 °F (2016)
Min Temperature 63 °F 48 °F 33 °F (1967)
Cooling Degree Days 6    
Growing Degree Days 21 (Base 50)    
Moisture  
Dew Point 66 °F    
Average Humidity 91    
Maximum Humidity 100    
Minimum Humidity 66    
Precipitation  
Precipitation 0.33 in - - ()
Sea Level Pressure  
Sea Level Pressure 29.75 in    
Wind  
Wind Speed 14 mph (South)    
Max Wind Speed 30 mph    
Max Gust Speed 44 mph    
Visibility 7 miles    
Events Rain , Thunderstorm    
Averages and records for this station are not official NWS values.
T = Trace of Precipitation, MM = Missing Value Source: NWS Daily Summary

Daily Weather History Graph

Daily Weather History Graph

Search for Another Location

Airport or City:

Trip Planner

Search our weather history database for the weather conditions in past years. The results will help you decide how hot, cold, wet, or windy it might be!

Date:

Astronomy

Apr. 28, 2014 Rise Set
Actual Time 6:03 AM CDT 7:32 PM CDT
Civil Twilight 5:37 AM CDT 7:58 PM CDT
Nautical Twilight 5:05 AM CDT 8:30 PM CDT
Astronomical Twilight 4:32 AM CDT 9:04 PM CDT
Moon 5:39 AM CDT (4/28) 7:11 PM CDT (4/28)
Length of Visible Light 14h 21m
Length of Day
13h 28m
Waning Crescent, 0% of the Moon is Illuminated
Apr 28
Waning Crescent
Apr 29
New
May 6
First Quarter
May 14
Full
May 21
Last Quarter

Hourly Weather History & Observations

Time (CDT) Temp. Dew Point Humidity Pressure Visibility Wind Dir Wind Speed Gust Speed Precip Events Conditions
12:16 AM 66.2 °F 64.4 °F 94% 29.83 in 10.0 mi SSE 16.1 mph 23.0 mph N/A   Overcast
12:56 AM 66.9 °F 64.9 °F 93% 29.87 in 10.0 mi SSE 10.4 mph 18.4 mph N/A   Overcast
1:23 AM 66.2 °F 64.4 °F 94% 29.83 in 10.0 mi South 11.5 mph - N/A   Overcast
1:56 AM 66.9 °F 64.9 °F 93% 29.86 in 10.0 mi SSE 15.0 mph 20.7 mph N/A   Overcast
2:28 AM 66.2 °F 64.4 °F 94% 29.80 in 10.0 mi SSE 13.8 mph 24.2 mph N/A   Overcast
2:32 AM 66.2 °F 64.4 °F 94% 29.79 in 10.0 mi SSE 10.4 mph 24.2 mph N/A   Overcast
2:39 AM 66.2 °F 64.4 °F 94% 29.79 in 10.0 mi SSE 11.5 mph 19.6 mph N/A   Overcast
2:56 AM 66.9 °F 64.9 °F 93% 29.83 in 10.0 mi SSE 11.5 mph 18.4 mph N/A   Mostly Cloudy
3:56 AM 66.9 °F 65.8 °F 96% 29.82 in 10.0 mi South 15.0 mph 20.7 mph N/A   Overcast
4:49 AM 66.2 °F 66.2 °F 100% 29.78 in 10.0 mi South 18.4 mph - 0.00 in   Mostly Cloudy
4:56 AM 66.9 °F 65.8 °F 96% 29.83 in 9.0 mi South 16.1 mph 25.3 mph 0.00 in Rain Light Rain
5:02 AM 66.2 °F 66.2 °F 100% 29.78 in 9.0 mi South 13.8 mph 25.3 mph 0.00 in Rain Light Rain
5:48 AM 66.2 °F 66.2 °F 100% 29.77 in 6.0 mi SSE 13.8 mph 26.5 mph 0.00 in Rain Light Rain
5:56 AM 66.9 °F 66.9 °F 100% 29.82 in 7.0 mi South 16.1 mph 20.7 mph 0.00 in Rain , Thunderstorm Light Thunderstorms and Rain
6:42 AM 66.2 °F 66.2 °F 100% 29.80 in 6.0 mi South 13.8 mph - 0.02 in Rain , Thunderstorm Light Thunderstorms and Rain
6:56 AM 66.9 °F 66.9 °F 100% 29.85 in 4.0 mi South 18.4 mph 25.3 mph 0.02 in Rain , Thunderstorm Light Thunderstorms and Rain
7:00 AM 66.2 °F 66.2 °F 100% 29.80 in 5.0 mi SSE 12.7 mph 25.3 mph 0.00 in Rain Light Rain
7:13 AM 66.2 °F 66.2 °F 100% 29.80 in 5.0 mi South 12.7 mph 25.3 mph 0.01 in Rain , Thunderstorm Light Thunderstorms and Rain
7:28 AM 66.2 °F 66.2 °F 100% 29.80 in 5.0 mi SSE 15.0 mph - 0.01 in Rain Light Rain
7:44 AM 68.0 °F 68.0 °F 100% 29.81 in 5.0 mi South 12.7 mph 21.9 mph 0.01 in   Overcast
7:56 AM 68.0 °F 68.0 °F 100% 29.86 in 6.0 mi South 11.5 mph 19.6 mph 0.01 in   Overcast
8:56 AM 70.0 °F 68.9 °F 96% 29.86 in 7.0 mi South 13.8 mph 19.6 mph N/A   Overcast
9:36 AM 71.6 °F 68.0 °F 88% 29.83 in 8.0 mi South 12.7 mph 20.7 mph N/A   Mostly Cloudy
9:45 AM 71.6 °F 68.0 °F 88% 29.82 in 9.0 mi South 15.0 mph 24.2 mph N/A   Mostly Cloudy
9:56 AM 72.9 °F 68.9 °F 87% 29.86 in 9.0 mi South 15.0 mph 21.9 mph N/A   Scattered Clouds
10:47 AM 75.2 °F 69.8 °F 83% 29.82 in 10.0 mi South 17.3 mph 25.3 mph N/A   Mostly Cloudy
10:56 AM 74.8 °F 68.9 °F 82% 29.87 in 9.0 mi South 19.6 mph 25.3 mph N/A   Mostly Cloudy
11:29 AM 77.0 °F 68.0 °F 74% 29.83 in 10.0 mi SSW 16.1 mph 29.9 mph N/A   Mostly Cloudy
11:56 AM 74.8 °F 66.9 °F 76% 29.86 in 10.0 mi South 16.1 mph - N/A   Mostly Cloudy
12:56 PM 75.9 °F 66.9 °F 74% 29.78 in 10.0 mi South 15.0 mph 27.6 mph N/A   Clear
1:56 PM 79.0 °F 68.0 °F 69% 29.78 in 10.0 mi SSW 18.4 mph 25.3 mph N/A   Partly Cloudy
2:56 PM 79.0 °F 66.9 °F 66% 29.74 in 10.0 mi South 17.3 mph 28.8 mph N/A   Scattered Clouds
3:40 PM 75.2 °F 66.2 °F 73% 29.68 in 10.0 mi SSE 16.1 mph 19.6 mph N/A Thunderstorm Mostly Cloudy
3:56 PM 75.9 °F 66.9 °F 74% 29.72 in 9.0 mi SSE 12.7 mph - N/A   Mostly Cloudy
4:07 PM 75.2 °F 66.2 °F 73% 29.68 in 8.0 mi South 13.8 mph 25.3 mph N/A Thunderstorm Mostly Cloudy
4:17 PM 75.2 °F 68.0 °F 78% 29.66 in 7.0 mi South 15.0 mph 21.9 mph 0.00 in Rain Light Rain
4:29 PM 73.4 °F 68.0 °F 83% 29.63 in 6.0 mi SSE 15.0 mph 21.9 mph 0.00 in Rain , Thunderstorm Rain
4:56 PM 72.9 °F 68.0 °F 85% 29.66 in 7.0 mi SE 12.7 mph 20.7 mph 0.00 in Rain , Thunderstorm Light Thunderstorms and Rain
5:39 PM 73.4 °F 68.0 °F 83% 29.61 in 7.0 mi South 15.0 mph 21.9 mph 0.00 in Rain , Thunderstorm Light Thunderstorms and Rain
5:56 PM 72.9 °F 66.9 °F 82% 29.68 in 9.0 mi South 12.7 mph 18.4 mph 0.00 in Rain , Thunderstorm Light Thunderstorms and Rain
6:17 PM 73.4 °F 68.0 °F 83% 29.60 in 6.0 mi SE 6.9 mph - 0.01 in Rain , Thunderstorm Light Thunderstorms and Rain
6:56 PM 72.0 °F 68.0 °F 87% 29.70 in 4.0 mi SSE 11.5 mph - 0.04 in Rain , Thunderstorm Rain
7:02 PM 71.6 °F 69.8 °F 94% 29.67 in 2.5 mi SSW 9.2 mph - 0.03 in Rain , Thunderstorm Thunderstorms and Rain
7:09 PM 71.6 °F 69.8 °F 94% 29.64 in 2.5 mi SE 9.2 mph - 0.04 in Rain , Thunderstorm Thunderstorms and Rain
7:17 PM 71.6 °F 69.8 °F 94% 29.63 in 3.0 mi South 17.3 mph 29.9 mph 0.05 in Rain , Thunderstorm Rain
7:23 PM 69.8 °F 64.4 °F 83% 29.63 in 2.5 mi South 29.9 mph 43.7 mph 0.07 in Rain , Thunderstorm Light Thunderstorms and Rain
7:31 PM 69.8 °F 64.4 °F 83% 29.65 in 3.0 mi South 20.7 mph 40.3 mph 0.07 in Rain , Thunderstorm Light Thunderstorms and Rain
7:33 PM 69.8 °F 64.4 °F 83% 29.62 in 5.0 mi SSE 20.7 mph 40.3 mph 0.07 in Rain , Thunderstorm Light Thunderstorms and Rain
7:47 PM 69.8 °F 66.2 °F 88% 29.65 in 6.0 mi SSW 20.7 mph 34.5 mph 0.08 in Rain , Thunderstorm Light Thunderstorms and Rain
7:56 PM 70.0 °F 65.8 °F 87% 29.68 in 8.0 mi South 17.3 mph 26.5 mph 0.08 in Rain , Thunderstorm Light Thunderstorms and Rain
8:13 PM 68.0 °F 64.4 °F 88% 29.67 in 3.0 mi South 21.9 mph 38.0 mph 0.02 in Rain , Thunderstorm Light Thunderstorms and Rain
8:35 PM 64.4 °F 60.8 °F 88% 29.65 in 10.0 mi SSE 15.0 mph 24.2 mph 0.03 in Rain , Thunderstorm Light Thunderstorms and Rain
8:56 PM 64.9 °F 61.9 °F 90% 29.72 in 10.0 mi South 12.7 mph - 0.03 in Rain , Thunderstorm Light Thunderstorms and Rain
9:03 PM 64.4 °F 62.6 °F 94% 29.67 in 8.0 mi South 9.2 mph - 0.00 in Rain Light Rain
9:18 PM 64.4 °F 62.6 °F 94% 29.68 in 5.0 mi South 9.2 mph - 0.01 in Rain Rain
9:27 PM 64.4 °F 62.6 °F 94% 29.68 in 3.0 mi SSE 11.5 mph 18.4 mph 0.02 in Rain Light Rain
9:33 PM 64.4 °F 64.4 °F 100% 29.70 in 6.0 mi South 10.4 mph 18.4 mph 0.02 in Rain , Thunderstorm Light Thunderstorms and Rain
9:41 PM 64.4 °F 64.4 °F 100% 29.71 in 3.0 mi South 9.2 mph - 0.05 in Rain , Thunderstorm Heavy Thunderstorms and Rain
9:45 PM 64.4 °F 64.4 °F 100% 29.71 in 2.0 mi South 10.4 mph - 0.06 in Rain , Thunderstorm Heavy Thunderstorms and Rain
9:56 PM 64.9 °F 64.9 °F 100% 29.75 in 2.0 mi South 8.1 mph - 0.08 in Rain Heavy Rain
10:13 PM 64.4 °F 64.4 °F 100% 29.70 in 10.0 mi SSE 8.1 mph - 0.01 in Rain Light Rain
10:37 PM 64.4 °F 64.4 °F 100% 29.70 in 1.8 mi SSE 9.2 mph - 0.05 in Rain Heavy Rain
10:45 PM 64.4 °F 64.4 °F 100% 29.69 in 3.0 mi SE 6.9 mph - 0.06 in Rain Rain
10:56 PM 63.9 °F 63.9 °F 100% 29.76 in 8.0 mi Calm Calm - 0.06 in Rain Light Rain
11:03 PM 64.4 °F 64.4 °F 100% 29.72 in 8.0 mi Calm Calm - 0.00 in Rain Light Rain
11:56 PM 63.9 °F 63.9 °F 100% 29.75 in 10.0 mi Calm Calm - 0.01 in   Mostly Cloudy